Sarasota, FL

10:29 PM EST on December 10, 2017 (GMT -0500)
Sarasota-bradenton

Weather History for KSRQ - January, 2003

Change the Weather History Date:

Wednesday, January 1, 2003

  Actual Average Record
Temperature  
Mean Temperature 66 °F 61 °F  
Max Temperature 73 °F 71 °F 85 °F (1991)
Min Temperature 59 °F 52 °F 30 °F (2001)
Degree Days  
Heating Degree Days 0 5  
Month to date heating degree days 5  
Since 1 July heating degree days 160  
Cooling Degree Days 1 2  
Month to date cooling degree days 2  
Year to date cooling degree days 2  
Growing Degree Days 16 (Base 50)    
Moisture  
Dew Point 64 °F    
Average Humidity 94    
Maximum Humidity 100    
Minimum Humidity 76    
Precipitation  
Precipitation 0.09 in 0.12 in 5.59 in (2006)
Month to date precipitation 0.12  
Year to date precipitation 0.12  
Sea Level Pressure  
Sea Level Pressure 29.90 in    
Wind  
Wind Speed 9 mph (SW)    
Max Wind Speed 13 mph    
Max Gust Speed -    
Visibility 10 miles    
Events Rain , Thunderstorm    
T = Trace of Precipitation, MM = Missing Value Source: NWS Daily Summary

Daily Weather History Graph

Daily Weather History Graph

Search for Another Location

Airport or City:

Trip Planner

Search our weather history database for the weather conditions in past years. The results will help you decide how hot, cold, wet, or windy it might be!

Date:

Astronomy

Jan. 01, 2003 Rise Set
Actual Time 7:20 AM EST 5:47 PM EST
Civil Twilight 6:54 AM EST 6:12 PM EST
Nautical Twilight 6:25 AM EST 6:41 PM EST
Astronomical Twilight 5:57 AM EST 7:10 PM EST
Moon 6:10 AM EST (1/1) 4:43 PM EST (1/1)
Length of Visible Light 11h 17m
Length of Day
10h 26m
Waning Crescent, 2% of the Moon is Illuminated
Jan 1
Waning Crescent
Jan 2
New
Jan 10
First Quarter
Jan 18
Full
Jan 25
Last Quarter

Hourly Weather History & Observations

Time (EST) Temp. Dew Point Humidity Pressure Visibility Wind Dir Wind Speed Gust Speed Precip Events Conditions
12:19 AM 64.4 °F 64.4 °F 100% 29.87 in 10.0 mi SSW 9.2 mph - N/A   Overcast
12:53 AM 64.9 °F 64.9 °F 100% 29.86 in 10.0 mi SSW 11.5 mph - 0.07 in   Overcast
1:28 AM 64.4 °F 64.4 °F 100% 29.85 in 10.0 mi SSW 9.2 mph - 0.00 in Rain , Thunderstorm Light Rain
1:35 AM 64.4 °F 64.4 °F 100% 29.86 in 10.0 mi South 8.1 mph - 0.00 in Rain , Thunderstorm Light Rain
1:40 AM 64.4 °F 64.4 °F 100% 29.86 in 9.0 mi SSW 10.4 mph - 0.01 in Rain Light Rain
1:53 AM 64.9 °F 64.9 °F 100% 29.85 in 8.0 mi South 9.2 mph - 0.02 in Rain Light Rain
2:53 AM 64.9 °F 64.9 °F 100% 29.84 in 9.0 mi South 12.7 mph - 0.00 in   Overcast
3:03 AM 64.4 °F 64.4 °F 100% 29.85 in 10.0 mi South 11.5 mph - N/A   Overcast
3:40 AM 64.4 °F 64.4 °F 100% 29.85 in 10.0 mi South 9.2 mph - N/A   Scattered Clouds
3:53 AM 64.9 °F 64.9 °F 100% 29.85 in 10.0 mi South 11.5 mph - N/A   Mostly Cloudy
4:53 AM 64.9 °F 64.0 °F 97% 29.85 in 10.0 mi South 12.7 mph - N/A   Mostly Cloudy
5:53 AM 64.9 °F 64.9 °F 100% 29.86 in 10.0 mi SSW 10.4 mph - N/A   Overcast
6:53 AM 64.9 °F 64.9 °F 100% 29.86 in 10.0 mi South 10.4 mph - N/A   Clear
7:53 AM 66.0 °F 66.0 °F 100% 29.88 in 10.0 mi SW 11.5 mph - N/A   Clear
8:53 AM 68.0 °F 66.9 °F 96% 29.91 in 10.0 mi SW 10.4 mph - N/A   Clear
9:53 AM 70.0 °F 66.0 °F 87% 29.93 in 10.0 mi SW 9.2 mph - N/A   Clear
10:53 AM 71.1 °F 64.9 °F 81% 29.94 in 10.0 mi WSW 10.4 mph - N/A   Partly Cloudy
11:53 AM 71.1 °F 64.9 °F 81% 29.93 in 10.0 mi WSW 8.1 mph - N/A   Clear
12:53 PM 72.0 °F 64.9 °F 78% 29.91 in 10.0 mi WSW 6.9 mph - N/A   Clear
1:53 PM 73.0 °F 64.9 °F 76% 29.90 in 10.0 mi WSW 9.2 mph - N/A   Clear
2:53 PM 72.0 °F 66.0 °F 81% 29.90 in 10.0 mi West 11.5 mph - N/A   Clear
3:53 PM 71.1 °F 64.9 °F 81% 29.91 in 10.0 mi West 10.4 mph - N/A   Clear
4:53 PM 70.0 °F 64.0 °F 81% 29.91 in 10.0 mi WNW 10.4 mph - N/A   Clear
5:53 PM 66.9 °F 64.0 °F 90% 29.92 in 10.0 mi WNW 6.9 mph - N/A   Clear
6:53 PM 64.9 °F 64.0 °F 97% 29.94 in 10.0 mi WNW 6.9 mph - N/A   Clear
7:53 PM 64.0 °F 63.0 °F 96% 29.95 in 10.0 mi Calm Calm - N/A   Clear
8:53 PM 62.1 °F 62.1 °F 100% 29.96 in 10.0 mi Calm Calm - N/A   Clear
9:53 PM 60.1 °F 60.1 °F 100% 29.97 in 9.0 mi Calm Calm - N/A   Clear
10:53 PM 59.0 °F 59.0 °F 100% 29.98 in 9.0 mi Calm Calm - N/A   Clear
11:53 PM 60.1 °F 60.1 °F 100% 29.97 in 7.0 mi East 3.5 mph - N/A   Clear